Location: M.A.R.S.Observatory
(35.4031°N, 81.5481°W)
Time: 20:04:30
(UTC-04:00)

SL-8 R/B - Visible Passes

Search period start: 27 May 2016 00:00
Search period end: 06 June 2016 00:00
Orbit: 657 x 669 km, 48.4° (Epoch: 27 May)

Date Brightness Start Highest point End Pass type
(mag) Time Alt. Az. Time Alt. Az. Time Alt. Az.
27 May 5.4 01:05:24 10° NW 01:08:29 31° N 01:08:29 31° N visible
27 May 6.3 22:11:06 10° NW 22:14:17 17° N 22:17:27 10° NE visible
27 May 5.7 23:54:15 10° NW 23:58:10 24° NNE 23:59:42 20° NE visible
28 May 6.0 01:36:26 10° NW 01:37:39 18° NW 01:37:39 18° NW visible
28 May 6.2 20:58:42 10° WNW 21:02:15 20° NNW 21:05:50 10° NE visible
28 May 6.2 22:42:53 10° NW 22:46:13 18° N 22:49:33 10° NE visible
29 May 5.1 00:25:14 10° NW 00:28:56 37° N 00:28:56 37° N visible
29 May 6.3 21:31:02 10° NW 21:34:11 17° N 21:37:20 10° NE visible
29 May 5.6 23:14:04 10° NW 23:18:03 25° NNE 23:20:17 18° ENE visible
30 May 5.6 00:56:17 10° NW 00:58:14 24° NW 00:58:14 24° NW visible
30 May 6.1 22:02:45 10° NW 22:06:07 18° N 22:09:30 10° NE visible
30 May 4.6 23:45:03 10° NW 23:49:39 42° NNE 23:49:39 42° NNE visible
31 May 5.5 22:33:54 10° NW 22:37:56 25° NNE 22:41:05 14° ENE visible
01 Jun 5.0 00:16:06 10° NW 00:19:03 37° NW 00:19:03 37° NW visible
01 Jun 6.0 21:22:36 10° NW 21:26:01 19° N 21:29:26 10° NE visible
01 Jun 4.5 23:04:52 10° NW 23:09:30 45° NNE 23:10:32 39° ENE visible
02 Jun 6.1 00:47:36 10° WNW 00:48:30 15° WNW 00:48:30 15° WNW visible
02 Jun 5.4 21:53:44 10° NW 21:57:49 26° NNE 22:01:54 10° ENE visible
02 Jun 4.0 23:35:57 10° NW 23:40:01 62° WNW 23:40:01 62° WNW visible
03 Jun 4.4 22:24:41 10° NW 22:29:22 47° NNE 22:31:36 27° E visible
04 Jun 5.6 00:07:30 10° WNW 00:09:34 22° W 00:09:34 22° W visible
04 Jun 5.3 21:13:33 10° NW 21:17:42 27° NNE 21:21:50 10° E visible
04 Jun 3.6 22:55:48 10° NW 23:00:38 78° SW 23:01:11 67° SSE visible
05 Jun 4.3 21:44:30 10° NW 21:49:13 50° NNE 21:52:51 16° ESE visible
05 Jun 5.1 23:27:24 10° WNW 23:30:49 28° WSW 23:30:49 28° WSW visible
